Notices

What's New in latest Release from April 7th, 2021:

- Updated Glossary, including Speed of Maximum Gust, and Total Hourly Precipitation

- Updated national and regional climate services offices contacts and prices information

- Addition of station inventory lists for 1981-2010, 1971-2000, and 1961-1990 Normals.

If you haven't already, please take our survey and provide feedback about our website: https://eccc.sondage-survey.ca/f/LanguageSelection.aspx?s=442ca660-fcf1-47c0-95a9-59707d6fd709

Hourly Data Report for December 28, 2020

CARBERRY CS
MANITOBA
Current Station Operator: ECCC - MSC

49°54'20.900" N
99°21'26.800" W
383.50 m
5010547
71170
WZE

Download Data

Hourly Data (December 2020)
Hourly Data Report for December 28, 2020
TIME
LST
Temp Definition
°C
Dew Point Definition
°C
Rel Hum Definition
%
Precip. Amount Definition
mm

Wind Dir Definition
10's deg

Wind Spd Definition
km/h
Visibility Definition
km
Stn Press Definition
kPa
Hmdx Definition


Wind Chill Definition


Weather Definition


00:00 -16.8 -20.4 74 0.0 4 15   97.62   -25 LegendNANA
01:00 -17.1 -20.9 72 0.0 2 10   97.69   -24 LegendNANA
02:00 -17.2 -20.7 74 0.0 4 7   97.70   -22 LegendNANA
03:00 -17.5 -21.0 74 0.0 2 4   97.76   -21 LegendNANA
04:00 -17.5 -20.9 75 0.0 0 1   97.79   -18 LegendNANA
05:00 -17.6 -20.6 77 0.0 14 5   97.80   -22 LegendNANA
06:00 -17.4 -20.2 79 0.0 20 6   97.81   -22 LegendNANA
07:00 -17.2 -19.9 80 0.0 22 7   97.81   -22 LegendNANA
08:00 -16.9 -19.6 80 0.0 27 17   97.82   -26 LegendNANA
09:00 -18.9 -21.7 79 0.2 27 14   97.84   -27 LegendNANA
10:00 -18.8 -21.4 80 0.0 25 12   97.86   -27 LegendNANA
11:00 -16.2 -18.9 79 0.0 26 19   97.84   -25 LegendNANA
12:00 -15.0 -17.7 80 0.0 26 26   97.80   -25 LegendNANA
13:00 -14.3 -17.6 76 0.0 26 24   97.72   -24 LegendNANA
14:00 -13.0 -17.3 70 0.0 25 21   97.65   -22 LegendNANA
15:00 -12.9 -17.2 70 0.0 24 20   97.63   -22 LegendNANA
16:00 -12.9 -17.1 71 0.0 24 15   97.63   -20 LegendNANA
17:00 -13.9 -17.4 75 0.0 23 14   97.56   -21 LegendNANA
18:00 -16.1 -18.5 81 0.0 22 11   97.52   -23 LegendNANA
19:00 -14.8 -17.4 80 0.0 21 16   97.46   -23 LegendNANA
20:00 -14.9 -17.5 80 0.0 21 13   97.40   -22 LegendNANA
21:00 -16.1 -18.4 83 0.0 20 16   97.33   -25 LegendNANA
22:00 -14.0 -16.7 80 0.0 20 20   97.27   -23 LegendNANA
23:00 -15.0 -17.3 83 0.0 19 18   97.25   -24 LegendNANA

Notes on Data Quality.

Legend

  • E = Estimated
  • M = Missing
  • NA = Not Available*
  • [empty] = Indicates an unobserved value
Date modified: